"Period start","avg(HW err(1)/warn(2) (#))","avg(Visibility (m))","avg(Weather code (#))","avg(Precip intensity (mm/h))","min(HW err(1)/warn(2) (#))","max(HW err(1)/warn(2) (#))","std(HW err(1)/warn(2) (#))","med(HW err(1)/warn(2) (#))","min(Visibility (m))","max(Visibility (m))","std(Visibility (m))","med(Visibility (m))","min(Weather code (#))","max(Weather code (#))","std(Weather code (#))","med(Weather code (#))","min(Precip intensity (mm/h))","max(Precip intensity (mm/h))","std(Precip intensity (mm/h))","med(Precip intensity (mm/h))"
2017-11-20 00:00:00,2,2667,71,1.61,2,2,0,2,1833,3441,488,2602,71,71,0,71,0.50,3.45,0.83,1.55
2017-11-20 00:10:00,2,1637,71,2.46,2,2,0,2,1381,1836,162,1667,71,71,0,71,1.55,4.05,0.65,2.42
2017-11-20 00:20:00,2,1473,71,2.11,2,2,0,2,1298,1694,97,1462,71,71,0,71,1.80,2.50,0.24,2.12
2017-11-20 00:30:00,2,1664,71,1.73,2,2,0,2,1421,1951,189,1659,71,71,0,71,1.10,2.15,0.31,1.80
2017-11-20 00:40:00,2,2220,71,0.96,2,2,0,2,1883,2497,190,2154,71,71,0,71,0.65,1.60,0.28,0.93
2017-11-20 00:50:00,2,2174,71,1.20,2,2,0,2,1501,2729,416,2272,71,71,0,71,0.80,2.15,0.43,1.00
2017-11-20 01:00:00,2,2558,71,1.11,2,2,0,2,1332,3826,923,2657,71,71,0,71,0.45,2.05,0.53,0.93
2017-11-20 01:10:00,2,3283,71,0.99,2,2,0,2,2439,4548,586,3138,71,71,0,71,0.50,1.85,0.38,0.95
2017-11-20 01:20:00,2,1916,71,2.81,2,2,0,2,1601,2456,301,1824,71,71,0,71,1.90,4.15,0.69,2.80
2017-11-20 01:30:00,2,1547,71,4.42,2,2,0,2,1074,1929,260,1592,71,71,0,71,2.65,8.05,1.58,3.95
2017-11-20 01:40:00,2,1133,71,7.62,2,2,0,2,939,1315,117,1158,71,71,0,71,5.05,10.30,1.75,7.60
2017-11-20 01:50:00,2,1514,71,5.35,2,2,0,2,1177,1805,173,1543,71,71,0,71,3.70,6.85,1.09,5.15
2017-11-20 02:00:00,2,1996,71,3.38,2,2,0,2,1472,2430,257,1984,71,71,0,71,2.35,5.95,0.98,3.00
2017-11-20 02:10:00,2,2435,71,2.67,2,2,0,2,2186,2893,180,2427,71,71,0,71,1.75,4.00,0.72,2.70
2017-11-20 02:20:00,2,1705,71,4.65,2,2,0,2,1537,2149,199,1618,71,71,0,71,3.20,5.55,0.68,4.85
2017-11-20 02:30:00,2,1986,71,3.72,2,2,0,2,1547,2536,337,1998,71,71,0,71,2.35,5.20,0.97,3.50
2017-11-20 02:40:00,2,1627,71,5.50,2,2,0,2,1254,2010,250,1513,71,71,0,71,3.00,6.65,1.08,5.70
2017-11-20 02:50:00,2,1989,71,4.28,2,2,0,2,1540,2475,285,1968,71,71,0,71,3.15,5.85,0.77,4.17
2017-11-20 03:00:00,2,2226,71,3.89,2,2,0,2,1768,2770,353,2193,71,71,0,71,2.25,6.60,1.36,3.55
2017-11-20 03:10:00,2,2172,71,3.62,2,2,0,2,1710,2725,374,2013,71,71,0,71,2.25,4.85,0.86,3.70
2017-11-20 03:20:00,2,1518,71,5.12,2,2,0,2,1287,1804,176,1534,71,71,0,71,3.05,7.20,1.31,5.00
2017-11-20 03:30:00,2,1495,71,4.88,2,2,0,2,1307,1652,109,1489,71,71,0,71,3.80,6.75,0.98,4.40
2017-11-20 03:40:00,2,1797,71,3.99,2,2,0,2,1555,2007,132,1780,71,71,0,71,2.80,4.90,0.66,3.90
2017-11-20 03:50:00,2,1603,71,5.06,2,2,0,2,1179,2356,408,1416,71,71,0,71,2.55,7.30,1.70,5.08
2017-11-20 04:00:00,2,1443,71,4.69,2,2,0,2,1186,1678,187,1487,71,71,0,71,2.75,7.05,1.65,4.25
2017-11-20 04:10:00,2,1704,71,2.17,2,2,0,2,1472,2313,270,1590,71,71,0,71,1.15,2.95,0.62,2.28
2017-11-20 04:20:00,2,4027,71,0.54,2,2,0,2,2690,4564,551,4282,71,71,0,71,0.35,1.00,0.21,0.42
2017-11-20 04:30:00,2,3808,71,0.59,2,2,0,2,3322,4127,296,3922,71,71,0,71,0.30,0.75,0.15,0.62
2017-11-20 04:40:00,2,2962,71,0.60,2,2,0,2,2693,3490,222,2866,71,71,0,71,0.45,0.80,0.11,0.55
2017-11-20 04:50:00,2,2138,71,0.75,2,2,0,2,1841,2651,215,2091,71,71,0,71,0.35,1.25,0.22,0.75
2017-11-20 05:00:00,2,2270,71,0.65,2,2,0,2,2000,2478,122,2268,71,71,0,71,0.35,0.95,0.17,0.65
2017-11-20 05:10:00,2,3907,71,0.40,2,2,0,2,2409,4865,835,4122,71,71,0,71,0.10,0.80,0.21,0.40
2017-11-20 05:20:00,2,2525,71,1.46,2,2,0,2,1948,4391,679,2322,71,71,0,71,0.50,2.20,0.51,1.58
2017-11-20 05:30:00,2,2392,71,1.40,2,2,0,2,2084,2745,205,2340,71,71,0,71,0.90,2.10,0.44,1.35
2017-11-20 05:40:00,2,1907,71,2.40,2,2,0,2,1335,2466,347,1888,71,71,0,71,1.55,3.45,0.61,2.30
2017-11-20 05:50:00,2,1074,71,5.84,2,2,0,2,835,1290,139,1056,71,71,0,71,2.80,10.05,1.91,5.18
2017-11-20 06:00:00,2,1002,71,6.53,2,2,0,2,945,1127,54,990,71,71,0,71,5.30,7.55,0.66,6.40
2017-11-20 06:10:00,2,941,71,5.13,2,2,0,2,827,1056,57,942,71,72,0,71,3.15,6.45,1.00,5.20
2017-11-20 06:20:00,2,1218,71,2.59,2,2,0,2,953,1513,154,1198,71,71,0,71,1.65,3.60,0.64,2.55
2017-11-20 06:30:00,2,2081,71,1.08,2,2,0,2,1512,3307,611,1716,71,71,0,71,0.45,1.65,0.42,1.23
2017-11-20 06:40:00,2,5811,71,0.47,2,2,0,2,3829,7298,1076,5971,71,71,0,71,0.20,1.10,0.26,0.38
2017-11-20 06:50:00,2,7335,71,0.35,2,2,0,2,6767,8153,391,7354,71,71,0,71,0.15,0.65,0.17,0.28
2017-11-20 07:00:00,2,8996,73,0.10,2,2,0,2,7723,9612,588,9235,71,77,3,71,0.00,0.25,0.08,0.10
2017-11-20 07:10:00,2,8291,75,0.18,2,2,0,2,7514,9287,555,8438,71,77,3,77,0.00,0.85,0.23,0.12
2017-11-20 07:20:00,2,2335,71,4.05,2,2,0,2,1130,5903,1304,2008,71,71,0,71,0.45,8.25,2.41,3.23
2017-11-20 07:30:00,2,1202,71,7.35,2,2,0,2,942,1376,144,1228,71,71,0,71,5.55,10.40,1.81,6.85
2017-11-20 07:40:00,2,997,71,9.00,2,2,0,2,903,1252,97,958,71,72,0,71,6.65,11.70,1.16,8.90
2017-11-20 07:50:00,2,1424,71,6.30,2,2,0,2,1018,1814,282,1410,71,71,0,71,4.30,8.80,1.84,5.65
2017-11-20 08:00:00,2,1335,71,6.44,2,2,0,2,1062,1523,132,1369,71,71,0,71,4.90,8.25,1.15,6.07
2017-11-20 08:10:00,2,1088,71,7.85,2,2,0,2,966,1203,67,1082,71,71,0,71,6.00,9.55,1.07,7.60
2017-11-20 08:20:00,2,935,71,8.55,2,2,0,2,827,1058,72,922,71,72,0,71,7.40,11.65,1.24,8.08
2017-11-20 08:30:00,2,757,72,11.37,2,2,0,2,605,976,115,728,72,72,0,72,8.30,14.00,1.59,11.18
2017-11-20 08:40:00,2,1127,71,8.53,2,2,0,2,975,1373,122,1102,71,72,0,71,6.70,10.25,1.08,8.43
2017-11-20 08:50:00,2,1592,71,5.38,2,2,0,2,1277,1833,179,1642,71,71,0,71,4.00,6.90,0.85,5.10
2017-11-20 09:00:00,2,1987,71,4.01,2,2,0,2,1461,2671,340,1932,71,71,0,71,2.80,6.65,1.09,3.78
2017-11-20 09:10:00,2,1595,71,6.23,2,2,0,2,1152,2106,279,1575,71,71,0,71,3.10,9.00,1.68,6.38
2017-11-20 09:20:00,2,2474,71,3.75,2,2,0,2,1802,3418,554,2338,71,71,0,71,1.85,6.10,1.24,3.53
2017-11-20 09:30:00,2,3139,71,2.73,2,2,0,2,2095,4460,663,3070,71,71,0,71,1.20,4.75,1.04,2.75
2017-11-20 09:40:00,2,2020,71,4.69,2,2,0,2,1533,2865,409,1910,71,71,0,71,3.15,6.15,1.10,4.62
2017-11-20 09:50:00,2,2116,71,4.11,2,2,0,2,1713,2607,299,2076,71,71,0,71,2.60,5.30,0.95,4.20
2017-11-20 10:00:00,2,2880,71,3.44,2,2,0,2,1550,5606,1496,2092,71,71,0,71,0.25,6.05,2.05,3.95
2017-11-20 10:10:00,2,5626,71,0.53,2,2,0,2,4885,6256,418,5646,71,71,0,71,0.20,0.85,0.20,0.47
2017-11-20 10:20:00,2,8518,71,0.18,2,2,0,2,6362,10588,1321,8335,71,71,0,71,0.00,0.50,0.15,0.15
2017-11-20 10:30:00,2,4731,71,0.74,2,2,0,2,3879,7378,1006,4369,71,71,0,71,0.15,1.15,0.29,0.78
2017-11-20 10:40:00,2,2550,71,2.75,2,2,0,2,2225,2769,176,2583,71,71,0,71,2.05,3.50,0.43,2.83
2017-11-20 10:50:00,2,2640,71,2.04,2,2,0,2,2217,3008,259,2622,71,71,0,71,1.25,2.95,0.55,1.95
2017-11-20 11:00:00,2,2938,71,1.51,2,2,0,2,2588,3396,278,2864,71,71,0,71,1.15,2.15,0.28,1.40
2017-11-20 11:10:00,2,3078,71,1.28,2,2,0,2,2666,3351,215,3078,71,71,0,71,0.90,1.65,0.27,1.27
2017-11-20 11:20:00,2,3306,71,1.20,2,2,0,2,2905,3491,174,3384,71,71,0,71,0.65,1.80,0.37,1.10
2017-11-20 11:30:00,2,3823,71,0.56,2,2,0,2,3506,4114,196,3780,71,71,0,71,0.40,0.70,0.11,0.62
2017-11-20 11:40:00,2,3712,71,0.65,2,2,0,2,3012,4226,377,3688,71,71,0,71,0.25,1.05,0.28,0.55
2017-11-20 11:50:00,2,2635,71,1.57,2,2,0,2,2190,3218,270,2662,71,71,0,71,1.00,2.65,0.48,1.45
2017-11-20 12:00:00,2,2470,71,1.20,2,2,0,2,2153,2870,195,2452,71,71,0,71,0.75,1.90,0.32,1.12
2017-11-20 12:10:00,2,2563,71,1.14,2,2,0,2,2278,2979,220,2488,71,71,0,71,0.65,1.65,0.29,1.18
2017-11-20 12:20:00,2,2600,71,2.09,2,2,0,2,2348,2854,195,2548,71,71,0,71,1.40,3.05,0.53,1.88
2017-11-20 12:30:00,2,2569,71,0.82,2,2,0,2,2240,3075,232,2552,71,71,0,71,0.30,1.10,0.23,0.88
2017-11-20 12:40:00,2,2491,71,1.38,2,2,0,2,2186,2800,214,2500,71,71,0,71,0.65,2.35,0.54,1.35
2017-11-20 12:50:00,2,2463,71,1.41,2,2,0,2,2024,2942,275,2354,71,71,0,71,0.65,1.85,0.38,1.55
2017-11-20 13:00:00,2,1922,71,2.35,2,2,0,2,1756,2260,140,1910,71,71,0,71,1.60,4.25,0.74,2.20
2017-11-20 13:10:00,2,1644,71,3.65,2,2,0,2,1435,1863,142,1652,71,71,0,71,2.45,4.75,0.69,3.72
2017-11-20 13:20:00,2,1515,71,4.35,2,2,0,2,1238,1802,179,1519,71,71,0,71,3.00,5.65,0.71,4.25
2017-11-20 13:30:00,2,1808,71,3.19,2,2,0,2,1611,1994,104,1828,71,71,0,71,2.25,3.85,0.55,3.38
2017-11-20 13:40:00,2,1425,71,5.10,2,2,0,2,1106,1652,202,1434,71,71,0,71,2.95,7.60,1.68,4.42
2017-11-20 13:50:00,2,2228,71,1.98,2,2,0,2,1448,2928,455,2286,71,71,0,71,0.85,3.45,0.83,1.80
2017-11-20 14:00:00,2,2176,71,1.95,2,2,0,2,1939,2396,165,2189,71,71,0,71,1.25,2.85,0.52,1.85
2017-11-20 14:10:00,2,2379,71,1.91,2,2,0,2,1939,2701,218,2395,71,71,0,71,0.80,3.00,0.60,1.85
2017-11-20 14:20:00,2,2139,71,2.29,2,2,0,2,1811,2711,291,2025,71,71,0,71,0.80,3.70,0.93,2.58
2017-11-20 14:30:00,2,1382,71,4.66,2,2,0,2,1079,1745,221,1432,71,71,0,71,2.60,6.50,1.35,4.77
2017-11-20 14:40:00,2,1004,71,7.87,2,2,0,2,664,1497,284,972,71,71,0,71,3.70,12.95,3.08,7.33
2017-11-20 14:50:00,2,2028,71,3.29,2,2,0,2,1296,3035,591,1744,71,71,0,71,1.30,4.90,1.24,3.50
2017-11-20 15:00:00,2,3004,71,1.44,2,2,0,2,2665,3535,276,2936,71,71,0,71,0.65,2.55,0.65,1.43
2017-11-20 15:10:00,2,2215,71,2.08,2,2,0,2,1926,3207,353,2100,71,71,0,71,1.05,3.05,0.67,2.02
2017-11-20 15:20:00,2,2398,71,2.27,2,2,0,2,1729,3207,406,2272,71,71,0,71,1.15,3.35,0.64,2.23
2017-11-20 15:30:00,2,1766,71,2.99,2,2,0,2,1441,2013,175,1788,71,71,0,71,1.55,4.65,0.96,2.73
2017-11-20 15:40:00,2,2236,71,2.11,2,2,0,2,1812,2768,372,2134,71,71,0,71,1.20,3.40,0.72,2.08
2017-11-20 15:50:00,2,2051,71,2.32,2,2,0,2,1649,2430,261,2060,71,71,0,71,1.05,4.40,1.09,1.98
2017-11-20 16:00:00,2,2877,71,1.95,2,2,0,2,1938,4311,653,2886,71,71,0,71,0.55,3.50,0.93,1.98
2017-11-20 16:10:00,2,2000,71,3.19,2,2,0,2,1704,2490,267,1866,71,71,0,71,2.25,4.15,0.67,3.33
2017-11-20 16:20:00,2,1850,71,3.48,2,2,0,2,1449,2212,250,1894,71,71,0,71,2.50,4.80,0.64,3.40
2017-11-20 16:30:00,2,1550,71,4.12,2,2,0,2,1250,1877,190,1549,71,71,0,71,2.75,5.55,0.86,4.00
2017-11-20 16:40:00,2,2100,71,3.06,2,2,0,2,1437,2733,434,2116,71,71,0,71,1.30,5.45,1.07,2.83
2017-11-20 16:50:00,2,2048,71,2.47,2,2,0,2,1584,2716,339,1970,71,71,0,71,1.45,3.40,0.70,2.60
2017-11-20 17:00:00,2,1623,71,3.40,2,2,0,2,1326,1927,236,1556,71,71,0,71,1.85,5.70,1.06,3.17
2017-11-20 17:10:00,2,1720,71,2.75,2,2,0,2,1413,1994,157,1743,71,71,0,71,1.65,3.50,0.63,2.95
2017-11-20 17:20:00,2,1274,71,5.17,2,2,0,2,1049,2000,255,1218,71,71,0,71,2.70,6.55,1.05,5.22
2017-11-20 17:30:00,2,1087,71,6.71,2,2,0,2,930,1278,112,1043,71,71,0,71,5.75,9.40,1.08,6.30
2017-11-20 17:40:00,2,1332,71,4.96,2,2,0,2,1151,1537,150,1298,71,71,0,71,3.50,7.20,1.34,4.50
2017-11-20 17:50:00,2,1560,71,2.39,2,2,0,2,1209,1845,201,1518,71,71,0,71,1.45,4.05,0.83,2.02
2017-11-20 18:00:00,2,1782,71,1.75,2,2,0,2,1575,1949,144,1830,71,71,0,71,1.20,2.95,0.49,1.70
2017-11-20 18:10:00,2,1681,71,1.79,2,2,0,2,1380,1933,160,1674,71,71,0,71,1.20,2.45,0.47,1.88
2017-11-20 18:20:00,2,1271,71,4.19,2,2,0,2,1072,1409,100,1288,71,71,0,71,2.75,8.70,1.61,3.67
2017-11-20 18:30:00,2,1246,71,3.90,2,2,0,2,776,1567,238,1301,71,71,0,71,2.20,7.45,1.46,4.00
2017-11-20 18:40:00,2,1227,71,2.84,2,2,0,2,979,1505,150,1205,71,71,0,71,1.50,4.70,0.91,3.12
2017-11-20 18:50:00,2,1472,71,1.45,2,2,0,2,1338,1622,87,1470,71,71,0,71,0.80,2.40,0.46,1.52
2017-11-20 19:00:00,2,1543,71,1.18,2,2,0,2,1278,1780,161,1531,71,71,0,71,0.80,1.90,0.32,1.12
2017-11-20 19:10:00,2,1663,71,0.81,2,2,0,2,1423,2319,262,1622,71,71,0,71,0.60,1.10,0.16,0.85
2017-11-20 19:20:00,2,1795,71,0.99,2,2,0,2,1505,2133,214,1747,71,71,0,71,0.50,1.40,0.28,1.00
2017-11-20 19:30:00,2,1430,71,1.44,2,2,0,2,1113,1894,238,1363,71,71,0,71,0.65,2.20,0.47,1.30
2017-11-20 19:40:00,2,977,71,2.46,2,2,0,2,775,1381,205,886,71,71,0,71,1.90,3.25,0.42,2.38
2017-11-20 19:50:00,2,1088,71,3.32,2,2,0,2,726,1255,160,1128,71,71,0,71,2.20,4.95,0.73,3.10
2017-11-20 20:00:00,2,1557,71,1.50,2,2,0,2,1059,2042,280,1600,71,71,0,71,0.80,2.60,0.55,1.40
2017-11-20 20:10:00,2,1680,71,1.32,2,2,0,2,1417,2023,185,1662,71,71,0,71,1.00,1.85,0.26,1.27
2017-11-20 20:20:00,2,1699,71,1.39,2,2,0,2,1314,2012,226,1792,71,71,0,71,0.85,2.15,0.45,1.23
2017-11-20 20:30:00,2,1730,71,1.29,2,2,0,2,1475,1973,142,1732,71,71,0,71,0.80,2.00,0.40,1.25
2017-11-20 20:40:00,2,1405,71,1.94,2,2,0,2,1262,1627,113,1412,71,71,0,71,1.10,2.80,0.51,2.17
2017-11-20 20:50:00,2,1257,71,2.29,2,2,0,2,1114,1477,100,1263,71,71,0,71,1.20,3.35,0.74,2.25
2017-11-20 21:00:00,2,1144,71,3.28,2,2,0,2,1027,1269,68,1144,71,71,0,71,2.55,4.15,0.51,3.20
2017-11-20 21:10:00,2,1062,71,3.01,2,2,0,2,830,1214,110,1056,71,71,0,71,2.35,3.95,0.49,2.98
2017-11-20 21:20:00,2,1079,71,2.76,2,2,0,2,877,1201,93,1099,71,71,0,71,1.60,4.00,0.79,2.75
2017-11-20 21:30:00,2,1158,71,1.40,2,2,0,2,951,1313,101,1162,71,71,0,71,0.75,2.35,0.52,1.43
2017-11-20 21:40:00,2,1262,71,0.78,2,2,0,2,1011,1569,165,1280,71,71,0,71,0.35,1.85,0.41,0.70
2017-11-20 21:50:00,2,1155,71,0.65,2,2,0,2,907,1318,117,1188,71,71,0,71,0.35,1.05,0.19,0.65
2017-11-20 22:00:00,2,1418,71,0.77,2,2,0,2,1001,1843,306,1464,71,71,0,71,0.35,1.40,0.28,0.70
2017-11-20 22:10:00,2,1726,71,0.32,2,2,0,2,1287,1982,189,1721,71,71,0,71,0.10,0.50,0.12,0.30
2017-11-20 22:20:00,2,1506,71,0.40,2,2,0,2,1229,1760,151,1556,71,71,0,71,0.10,0.85,0.23,0.35
2017-11-20 22:30:00,2,1718,72,0.20,2,2,0,2,1463,1951,124,1742,71,77,2,71,0.05,0.40,0.11,0.20
2017-11-20 22:40:00,2,1448,75,0.17,2,2,0,2,1240,1737,145,1412,71,77,3,77,0.10,0.25,0.04,0.15
2017-11-20 22:50:00,2,1615,73,0.20,2,2,0,2,1353,1822,141,1648,71,77,3,71,0.10,0.30,0.06,0.20
2017-11-20 23:00:00,2,1850,71,0.35,2,2,0,2,1568,1953,104,1864,71,71,0,71,0.10,0.60,0.16,0.33
2017-11-20 23:10:00,2,1749,71,0.30,2,2,0,2,1369,2033,213,1807,71,71,0,71,0.05,0.90,0.26,0.15
2017-11-20 23:20:00,2,2202,71,0.42,2,2,0,2,1815,2634,244,2172,71,71,0,71,0.05,1.20,0.34,0.35
2017-11-20 23:30:00,2,1859,71,0.66,2,2,0,2,1541,2118,170,1924,71,71,0,71,0.05,1.65,0.52,0.47
2017-11-20 23:40:00,2,2008,71,0.59,2,2,0,2,1554,2405,256,2072,71,71,0,71,0.05,1.85,0.61,0.38
2017-11-20 23:50:00,2,2634,71,0.31,2,2,0,2,2161,3277,317,2658,71,71,0,71,0.00,0.90,0.28,0.25
